Regional Weather Roundup
Issued by NWS Newport/Morehead, NC

Current Version | Previous Version | Text Only | Print | Product List | Glossary Off
Versions: 1 2 3 4 5 6 7 8 9 10 11 12 13 14 15 16 17 18 19 20 21 22 23 24 25 26 27 28 29 30 31 32 33 34 35 36 37 38 39 40 41 42 43 44 45 46 47 48 49 50
000 ASUS42 KMHX 232313 RWRMHX WEATHER ROUNDUP FOR EASTERN NORTH CAROLINA NATIONAL WEATHER SERVICE NEWPORT/MOREHEAD CITY NC 700 PM EDT MON OCT 23 2017 NOTE: "FAIR" INDICATES FEW OR NO CLOUDS BELOW 12,000 FEET WITH NO SIGNIFICANT WEATHER AND/OR OBSTRUCTIONS TO VISIBILITY NCZ015>017-031-032-045>047-102-103-240000- NORTH COAST CITY SKY/WX TMP DP RH WIND PRES REMARKS EDENTON MOCLDY 75 68 77 SE9G16 29.98F ELIZABETH CITY CLOUDY 74 67 78 S9 29.99F KITTY HAWK CLOUDY 73 65 75 CALM 30.00F MANTEO CLOUDY N/A N/A N/A S13G20 30.02F $$ NCZ045>047-081-094-103-104-240000- CENTRAL COAST CITY SKY/WX TMP DP RH WIND PRES REMARKS FRISCO CLOUDY 77 69 76 S20 30.02F $$ NCZ095-097-098-100-101-240000- SOUTHERN COAST CITY SKY/WX TMP DP RH WIND PRES REMARKS BEAUFORT CLOUDY 73 71 93 S13 30.00S CEDAR ISLAND NOT AVBL JACKSONVILLE CLOUDY 73 72 96 SE10 29.93F PINEY ISLAND N/A N/A N/A N/A S14G22 29.99F WILMINGTON PTCLDY 77 70 79 S14G20 29.92F $$ NCZ011>013-027>030-043-044-078>080-089-090>093-098-240000- COASTAL PLAIN CITY SKY/WX TMP DP RH WIND PRES REMARKS AHOSKIE LGT RAIN 73 65 76 SE8 29.94F CLINTON CLOUDY 74 67 79 SE5 29.89F ELIZABETHTOWN NOT AVBL GOLDSBORO PTCLDY 74 66 75 SE8 29.88F GREENVILLE LGT RAIN 70 70 100 SE13 29.98S HAVELOCK LGT RAIN 71 70 96 S12 30.00S KENANSVILLE PTCLDY 73 68 83 SE6 29.91F KINSTON CLOUDY 72 70 94 SE9 29.93F NEW BERN LGT RAIN 70 70 100 SE10 29.99F RICHLANDS PTCLDY 72 70 93 E9 29.93F ROCKY MOUNT CLOUDY 73 66 78 SE10G18 29.89F WASHINGTON LGT RAIN 72 69 89 S9G22 29.98R WHITEVILLE CLOUDY 74 71 88 SE6 29.89F $$ AMZ130-135-150-152-154-156-158-170-250-252-270-ANZ085-086-088-633-658-670-240000- MARINE OBSERVATIONS STATION/POSITION TIME TEMP WIND PRES WAVE SWELL AIR SEA DIR/SP/G HT/PER HT/PER (UTC) (F) (DEG/KT/KT) (MB) (FT/S) (FT/S) CHESAPEAKE LIGHT NOT AVBL 64 E VA BEACH 2250 74 69 160/ 19/ 21 1017.1 6/ 6 DUCK 2248 74 70 150/ 15/ 18 1015.6 2 E DUCK 2300 71 N/A 4/ 5 OREGON INLET 2248 72 140/ 10/ 15 1016.3 13E OREGON INLT 2248 72 N/A 5/ 6 5/ 6 HATTERAS CG 2248 77 74 160/ 18/ 24 1016.3 DIAMOND BUOY 2250 79 80 150/ 21/ 25 1016.4 6/ 6 2/ 9 CAPE LOOKOUT 2300 76 160/ 21/ 25 1015.5 BEAUFORT LAB 2248 73 74 170/ 17/ 21 1015.7 30 SE NEW RVR IN 2208 78 180/ 23/ 31 1014.9 30 SE NEW RVR IN NOT AVBL 27 SE WRIGHTSVLE 2208 77 76 170/ 17/ 23 1014.9 5 SE WRIGHTSVLE 2208 76 74 170/ 16/ 19 1014.4 225 S CAPE HAT 2250 78 80 130/ 16/ 19 1018.3 5/ 6 2/ 8 41 SE CHARLESTON 2250 80 80 170/ 25/ 29 1012.0 9/ 7 $$

USA.gov is the U.S. government's official web portal to all federal, state and local government web resources and services.